Location: Omaha
(41.2590°N, 95.9380°W)
Time: 03:10:03
(UTC-06:00)

Vanguard 2 Rocket - All Passes

Search period start: 18 December 2017 00:00
Search period end: 28 December 2017 00:00
Orbit: 556 x 3326 km, 32.9° (Epoch: 16 December)

Date Brightness Start Highest point End Pass type
(mag) Time Alt. Az. Time Alt. Az. Time Alt. Az.
18 Dec - 01:53:45 10° W 02:07:17 24° SW 02:20:32 10° S visible
18 Dec - 16:01:03 10° SSE 16:05:34 16° SE 16:11:23 10° E daylight
18 Dec - 18:09:03 10° SW 18:17:49 46° SSE 18:32:30 10° E visible
18 Dec - 20:20:59 10° WSW 20:32:56 63° S 20:51:46 10° ESE visible
18 Dec - 22:34:49 10° W 22:49:48 54° SSW 23:09:09 10° SE visible
19 Dec - 00:51:21 10° W 01:06:22 31° SW 01:22:11 10° SSE visible
19 Dec - 17:10:56 10° SSW 17:18:12 34° SSE 17:29:55 10° E visible
19 Dec - 19:21:53 10° WSW 19:32:10 59° S 19:49:23 10° E visible
19 Dec - 21:34:56 10° W 21:48:24 58° SSW 22:07:45 10° ESE visible
19 Dec - 23:50:04 10° W 00:05:11 39° SSW 00:22:43 10° SSE visible
20 Dec - 02:11:25 10° WSW 02:20:43 15° SW 02:30:02 10° SSW visible
20 Dec - 16:13:27 10° S 16:19:03 23° SE 16:27:13 10° E daylight
20 Dec - 18:23:09 10° SW 18:31:53 52° SSE 18:46:55 10° E visible
20 Dec - 20:35:27 10° W 20:47:15 61° S 21:05:50 10° ESE visible
20 Dec - 22:49:32 10° W 23:03:52 46° SSW 23:22:22 10° SE visible
21 Dec - 01:07:22 10° W 01:19:59 23° SW 01:33:22 10° S night (unlit)
21 Dec - 15:17:30 10° SSE 15:20:15 12° SE 15:23:32 10° ESE daylight
21 Dec - 17:24:46 10° SW 17:32:06 42° SSE 17:44:30 10° E visible
21 Dec - 19:36:18 10° WSW 19:46:27 60° S 20:03:35 10° ESE visible
21 Dec - 21:49:33 10° W 22:02:37 51° SSW 22:21:18 10° SE visible
22 Dec - 00:05:23 10° W 00:19:00 30° SW 00:34:44 10° SSE visible
22 Dec - 16:26:49 10° SSW 16:32:47 31° SSE 16:42:12 10° E daylight
22 Dec - 18:37:28 10° WSW 18:46:06 56° S 19:01:13 10° E visible
22 Dec - 20:50:01 10° W 21:01:33 55° S 21:19:40 10° ESE visible
22 Dec - 23:04:29 10° W 23:17:53 36° SSW 23:35:00 10° SSE visible
23 Dec - 01:25:27 10° WSW 01:33:38 14° SW 01:42:12 10° SSW night (unlit)
23 Dec - 15:29:31 10° S 15:33:51 19° SE 15:39:51 10° E daylight
23 Dec - 17:38:54 10° SW 17:46:12 49° SSE 17:58:55 10° E visible
23 Dec - 19:50:49 10° W 20:00:48 57° S 20:17:37 10° ESE visible
23 Dec - 22:04:19 10° W 22:16:47 43° SSW 22:34:23 10° SE visible
24 Dec - 00:21:38 10° W 00:32:49 21° SW 00:45:32 10° S visible
24 Dec - 16:40:40 10° SW 16:46:44 38° SSE 16:56:51 10° E daylight
24 Dec - 18:51:55 10° WSW 19:00:26 57° S 19:15:24 10° ESE visible
24 Dec - 21:04:40 10° W 21:15:51 48° SSW 21:33:07 10° SE visible
24 Dec - 23:19:58 10° W 23:31:53 27° SSW 23:46:45 10° SSE visible
25 Dec - 15:42:49 10° SSW 15:47:40 26° SSE 15:54:58 10° E daylight
25 Dec - 17:53:15 10° WSW 18:00:29 52° S 18:13:14 10° E visible
25 Dec - 20:05:24 10° W 20:15:10 51° S 20:31:24 10° ESE visible
25 Dec - 22:19:24 10° W 22:30:57 33° SSW 22:46:48 10° SSE visible
26 Dec - 00:40:35 10° WSW 00:46:43 13° SW 00:53:19 10° SSW night (unlit)
26 Dec - 14:45:43 10° S 14:48:54 16° SE 14:52:56 10° ESE daylight
26 Dec - 16:54:50 10° SW 17:00:55 44° SSE 17:11:18 10° E daylight
26 Dec - 19:06:27 10° WSW 19:14:50 53° S 19:29:25 10° ESE visible
26 Dec - 21:19:32 10° W 21:30:08 38° SSW 21:46:04 10° SE visible
26 Dec - 23:36:34 10° WSW 23:45:56 18° SW 23:57:02 10° S visible
27 Dec - 15:56:41 10° SW 16:01:43 34° SSE 16:09:40 10° E daylight
27 Dec - 18:07:44 10° WSW 18:14:51 52° S 18:27:27 10° ESE visible
27 Dec - 20:20:08 10° W 20:29:33 43° SSW 20:44:46 10° SE visible
27 Dec - 22:35:06 10° WSW 22:45:08 24° SSW 22:58:15 10° SSE visible
